Flag Weather past 2 weeks in Monaco, Monaco

Now
55 °F

Passing clouds.


Feels Like: 53 °F
Forecast: 56 / 60 °F
Wind: 9 mph from Northeast

Location: Nice Airport

Current Time: Nov 28, 2014 at 4:28:59 AM

Latest Report: Nov 28, 2014 at 4:00 AM


Visibility: N/A

Pressure: 29.74 "Hg

Humidity: 82%

Dew point: 50 °F

Location of MonacoLocation

Historic Weather in Monaco — Graph

°F

Monaco temperature yesterday

Maximum temperature yesterday: 61 °F (at 12:00 AM)
Minimum temperature yesterday: 55 °F (at 5:30 AM)
Average temperature yesterday: 59 °F

Past Weeks' High & Low Weather Summary

 TemperatureHumidityPressure
High68 °F (Nov 23, 12:00 PM)94% (Nov 14, 11:00 PM)30.24 "Hg (Nov 14, 11:00 PM)
Low46 °F (Nov 18, 12:42 AM)42% (Nov 19, 12:00 PM)29.50 "Hg (Nov 15, 1:30 PM)
Average57 °F74%29.95 "Hg
* Reported Nov 13 3:00 AM — Nov 28 3:00 AM, Monaco, Weather by CustomWeather, © 2014

Note: Actual official high and low records may vary slightly from our data, if they occured in-between our weather recording intervals... More about our weather records

Advertising

Monaco weather history for previous 24 hours

 ConditionsComfort  
Time TempWeatherWind HumidityBarometerVisibility
3:00 AM
Nov 28
57 °FPassing clouds.12 mph82%29.77 "HgN/A
2:30 AM55 °FPassing clouds.9 mph88%29.80 "HgN/A
2:00 AM57 °FRain. Passing clouds.10 mph82%29.80 "HgN/A
1:30 AM55 °FLight rain. Passing clouds.7 mph88%29.80 "HgN/A
1:00 AM55 °FPassing clouds.3 mph88%29.80 "HgN/A
12:30 AM57 °FPassing clouds.10 mph82%29.80 "HgN/A
12:00 AM55 °FPassing clouds.10 mph88%29.83 "HgN/A
11:30 PM
Nov 27
57 °FPassing clouds.8 mph82%29.80 "HgN/A
11:00 PM57 °FPassing clouds.7 mph82%29.80 "HgN/A
10:30 PM57 °FPassing clouds.6 mph82%29.83 "HgN/A
10:00 PM59 °FPassing clouds.7 mph77%29.83 "HgN/A
9:30 PM57 °FPassing clouds.8 mph82%29.83 "HgN/A
8:30 PM59 °FPassing clouds.12 mph77%29.83 "HgN/A
8:00 PM57 °FPassing clouds.8 mph82%29.83 "HgN/A
7:30 PM59 °FPartly cloudy.10 mph77%29.86 "HgN/A
7:00 PM59 °FPartly cloudy.9 mph82%29.86 "HgN/A
6:30 PM57 °FPartly cloudy.6 mph88%29.83 "HgN/A
6:00 PM57 °FPartly cloudy.7 mph88%29.83 "HgN/A
5:30 PM57 °FRain showers. Partly cloudy.8 mph82%29.86 "Hg4 mi
5:07 PM59 °FRain showers. Passing clouds.9 mph77%29.86 "Hg3 mi
4:30 PM61 °FBroken clouds.12 mph72%29.83 "HgN/A
4:00 PM61 °FBroken clouds.13 mph72%29.83 "HgN/A
3:30 PM61 °FScattered showers. Broken clouds.13 mph72%29.83 "HgN/A
3:00 PM61 °FBroken clouds.13 mph72%29.83 "HgN/A
2:22 PM61 °FScattered clouds.12 mph72%29.83 "HgN/A
2:00 PM61 °FBroken clouds.13 mph72%29.86 "HgN/A
1:30 PM59 °FBroken clouds.15 mph82%29.86 "HgN/A
1:00 PM59 °FLight rain. Broken clouds.15 mph82%29.86 "HgN/A
12:30 PM61 °FBroken clouds.12 mph77%29.86 "HgN/A
12:00 PM61 °FBroken clouds.12 mph77%29.86 "HgN/A
11:30 AM61 °FScattered clouds.12 mph83%29.89 "HgN/A
11:00 AM61 °FPartly sunny.8 mph77%29.89 "HgN/A
10:30 AM59 °FPartly sunny.6 mph82%29.89 "HgN/A
10:00 AM59 °FPartly sunny.3 mph82%29.89 "HgN/A
9:30 AM59 °FPartly sunny.6 mph82%29.89 "HgN/A
9:00 AM59 °FLight rain. Partly sunny.9 mph82%29.86 "HgN/A
8:30 AM59 °FLight rain. Partly sunny.9 mph82%29.86 "HgN/A
8:00 AM57 °FLight rain. Broken clouds.6 mph82%29.86 "HgN/A
7:30 AM57 °FLight rain. Partly cloudy.7 mph82%29.86 "HgN/A
7:00 AM57 °FLight rain. Passing clouds.7 mph88%29.86 "HgN/A
6:30 AM55 °FLight rain. Mostly cloudy.7 mph94%29.83 "HgN/A
6:00 AM55 °FRain. Mostly cloudy.13 mph94%29.83 "Hg4 mi
5:30 AM55 °FRain. Fog.12 mph94%29.86 "Hg2 mi
5:00 AM57 °FRain. Mostly cloudy.13 mph88%29.83 "Hg3 mi
4:30 AM57 °FRain. Mostly cloudy.12 mph88%29.86 "Hg4 mi
4:00 AM57 °FRain. Mostly cloudy.9 mph88%29.86 "Hg4 mi
Weather by CustomWeather, © 2014

See weather overviewHow to use our weather pages